This is the latest recevied weather packets stored in our database for station/object N3FYI-5. If no packets are shown the sender has not sent any weather packets the latest 10 day(s).
| Time | Temp. | Humidity | Pressure | Rain* | Wind** | Luminosity | Snow |
|---|---|---|---|---|---|---|---|
| 1776962270 | 18.33° C | 48% | 1023.4 hPa | 0 mm | - | - | - |
| 1776961790 | 17.78° C | 48% | 1023.5 hPa | 0 mm | - | - | - |
| 1776961314 | 17.22° C | 50% | 1023.6 hPa | 0 mm | - | - | - |
| 1776960832 | 17.22° C | 51% | 1023.7 hPa | 0 mm | - | - | - |
| 1776960350 | 16.67° C | 50% | 1023.8 hPa | 0 mm | - | - | - |
| 1776959877 | 16.67° C | 52% | 1024 hPa | 0 mm | - | - | - |
| 1776959390 | 16.67° C | 53% | 1024 hPa | 0 mm | - | - | - |
| 1776958910 | 16.67° C | 54% | 1024.2 hPa | 0 mm | - | - | - |
| 1776958430 | 16.67° C | 53% | 1024.2 hPa | 0 mm | - | - | - |
| 1776957950 | 16.67° C | 53% | 1024.2 hPa | 0 mm | - | - | - |
| 1776957411 | 16.11° C | 54% | 1024.2 hPa | 0 mm | - | - | - |
| 1776956451 | 16.11° C | 52% | 1024.3 hPa | 0 mm | - | - | - |
| 1776955973 | 15.56° C | 54% | 1024.4 hPa | 0 mm | - | - | - |
| 1776955491 | 15.56° C | 55% | 1024.3 hPa | 0 mm | - | - | - |
| 1776955012 | 15.56° C | 55% | 1024.3 hPa | 0 mm | - | - | - |
| 1776954531 | 15.56° C | 55% | 1024.2 hPa | 0 mm | - | - | - |
| 1776954051 | 15° C | 56% | 1024.2 hPa | 0 mm | - | - | - |
| 1776953571 | 15° C | 56% | 1024.1 hPa | 0 mm | - | - | - |
| 1776953091 | 14.44° C | 59% | 1024 hPa | 0 mm | - | - | - |
| 1776952611 | 14.44° C | 59% | 1024.1 hPa | 0 mm | - | - | - |
| 1776952131 | 13.89° C | 61% | 1024.2 hPa | 0 mm | - | - | - |
| 1776951652 | 13.89° C | 60% | 1024.2 hPa | 0 mm | - | - | - |
| 1776951177 | 13.89° C | 61% | 1024.4 hPa | 0 mm | - | - | - |
| 1776950699 | 13.89° C | 62% | 1024.4 hPa | 0 mm | - | - | - |
| 1776950215 | 13.33° C | 63% | 1024.4 hPa | 0 mm | - | - | - |
* Rain latest hour (hover to see other rain measurements)
** Current wind speed in m/s (hover to see current wind gust speed)